| time (UTC) | temp F | wind direction | speed MPH | gust MPH | rain 1hr in | rain 24hr in | rain mn in | humidity % | barometer mb |
| 20260903090204 | 74 | 152 | 1.0 | 3.0 | 0.00 | 0.00 | 0.00 | 90 | |
| 20260903085204 | 74 | 251 | 0.0 | 5.0 | 0.00 | 0.00 | 0.00 | 89 | |
| 20260903084204 | 75 | 209 | 0.0 | 6.0 | 0.00 | 0.00 | 0.00 | 89 | |
| 20260903083204 | 74 | 91 | 1.0 | 3.0 | 0.00 | 0.00 | 0.00 | 89 | |
| 20260903082204 | 75 | 172 | 1.0 | 5.0 | 0.00 | 0.00 | 0.00 | 90 | |
| 20260903081204 | 74 | 198 | 1.0 | 2.0 | 0.00 | 0.00 | 0.00 | 90 | |
| 20260903080203 | 75 | 235 | 1.0 | 5.0 | 0.00 | 0.00 | 0.00 | 90 | |
| 20260903075204 | 75 | 239 | 1.0 | 2.0 | 0.00 | 0.00 | 0.00 | 90 | |
| 20260903074204 | 74 | 235 | 1.0 | 5.0 | 0.00 | 0.00 | 0.00 | 90 | |
| 20260903073204 | 74 | 205 | 1.0 | 3.0 | 0.00 | 0.00 | 0.00 | 88 | |
| 20260903072204 | 74 | 261 | 0.0 | 2.0 | 0.00 | 0.00 | 0.00 | 88 | |
| 20260903071204 | 74 | 209 | 0.0 | 2.0 | 0.00 | 0.00 | 0.00 | 86 | |
| 20260903070204 | 74 | 199 | 0.0 | 1.0 | 0.00 | 0.00 | 0.00 | 87 | |
| 20260903065204 | 73 | 260 | 0.0 | 3.0 | 0.00 | 0.00 | 0.00 | 88 | |
| 20260903064204 | 72 | 163 | 0.0 | 2.0 | 0.00 | 0.00 | 0.00 | 91 | |
| 20260903063204 | 71 | 270 | 0.0 | 0.0 | 0.00 | 0.00 | 0.00 | 90 | |
| 20260903062204 | 71 | 270 | 0.0 | 0.0 | 0.00 | 0.00 | 0.00 | 90 | |
| 20260903061203 | 71 | 270 | 0.0 | 0.0 | 0.00 | 0.00 | 0.00 | 91 | |
| 20260903060205 | 71 | 270 | 0.0 | 0.0 | 0.00 | 0.00 | 0.00 | 90 | |
| 20260903055203 | 71 | 270 | 0.0 | 0.0 | 0.00 | 0.00 | 0.00 | 90 | |
| 20260903054204 | 72 | 270 | 0.0 | 0.0 | 0.00 | 0.00 | 0.00 | 89 | |
| 20260903053204 | 72 | 270 | 0.0 | 0.0 | 0.00 | 0.00 | 0.00 | 90 | |
| 20260903052204 | 72 | 270 | 0.0 | 0.0 | 0.00 | 0.00 | 0.00 | 89 | |
| 20260903051204 | 72 | 270 | 0.0 | 0.0 | 0.00 | 0.00 | 0.00 | 89 | |
| 20260903050204 | 72 | 270 | 0.0 | 0.0 | 0.00 | 0.00 | 0.00 | 89 | |
| 20260903045205 | 72 | 270 | 0.0 | 0.0 | 0.00 | 0.00 | 0.00 | 88 | |
| 20260903044204 | 72 | 270 | 0.0 | 0.0 | 0.00 | 0.00 | 0.00 | 88 | |
| 20260903043204 | 72 | 270 | 0.0 | 0.0 | 0.00 | 0.00 | 0.00 | 88 | |
| 20260903042204 | 72 | 270 | 0.0 | 0.0 | 0.00 | 0.00 | 0.00 | 87 | |
| 20260903041204 | 73 | 270 | 0.0 | 0.0 | 0.00 | 0.00 | 0.00 | 86 | |
| 20260903040204 | 73 | 270 | 0.0 | 0.0 | 0.00 | 0.00 | 0.00 | 85 | |
| 20260903035204 | 73 | 270 | 0.0 | 0.0 | 0.00 | 0.00 | 0.00 | 85 | |
| 20260903034204 | 73 | 270 | 0.0 | 0.0 | 0.00 | 0.00 | 0.00 | 85 | |
| 20260903033204 | 73 | 270 | 0.0 | 0.0 | 0.00 | 0.00 | 0.00 | 86 | |
| 20260903032208 | 73 | 270 | 0.0 | 0.0 | 0.00 | 0.00 | 0.00 | 85 | |
| 20260903031203 | 73 | 270 | 0.0 | 0.0 | 0.00 | 0.00 | 0.00 | 86 | |
| 20260903030204 | 73 | 270 | 0.0 | 0.0 | 0.00 | 0.00 | 0.00 | 86 | |
| 20260903025203 | 73 | 270 | 0.0 | 0.0 | 0.00 | 0.00 | 0.00 | 85 | |
| 20260903024203 | 73 | 270 | 0.0 | 0.0 | 0.00 | 0.00 | 0.00 | 85 | |
| 20260903023204 | 72 | 270 | 0.0 | 0.0 | 0.00 | 0.00 | 0.00 | 84 | |
| 20260903022204 | 72 | 270 | 0.0 | 0.0 | 0.00 | 0.00 | 0.00 | 84 | |
| 20260903021204 | 72 | 270 | 0.0 | 0.0 | 0.00 | 0.00 | 0.00 | 83 | |
| 20260903020204 | 72 | 270 | 0.0 | 0.0 | 0.00 | 0.00 | 0.00 | 82 | |
| 20260903015204 | 73 | 270 | 0.0 | 0.0 | 0.00 | 0.00 | 0.00 | 81 | |
| 20260903014204 | 73 | 270 | 0.0 | 0.0 | 0.00 | 0.00 | 0.00 | 81 | |
| 20260903013203 | 73 | 270 | 0.0 | 0.0 | 0.00 | 0.00 | 0.00 | 80 | |
| 20260903012204 | 73 | 270 | 0.0 | 0.0 | 0.00 | 0.00 | 0.00 | 78 | |
| 20260903011204 | 72 | 270 | 0.0 | 0.0 | 0.00 | 0.00 | 0.00 | 77 | |
| 20260903010203 | 72 | 270 | 0.0 | 0.0 | 0.00 | 0.00 | 0.00 | 76 | |
| 20260903005203 | 75 | 270 | 0.0 | 0.0 | 0.00 | 0.00 | 0.00 | 74 | |
| 20260903004204 | 76 | 270 | 0.0 | 0.0 | 0.00 | 0.00 | 0.00 | 73 | |
| 20260903003204 | 77 | 270 | 0.0 | 0.0 | 0.00 | 0.00 | 0.00 | 72 | |
| 20260903002204 | 78 | 270 | 0.0 | 0.0 | 0.00 | 0.00 | 0.00 | 70 | |
| 20260903001204 | 79 | 270 | 0.0 | 0.0 | 0.00 | 0.00 | 0.00 | 69 | |
| 20260903000204 | 81 | 270 | 0.0 | 0.0 | 0.00 | 0.00 | 0.00 | 66 | |
| 20260902235203 | 82 | 270 | 0.0 | 0.0 | 0.00 | 0.00 | 0.00 | 63 | |
| 20260902234204 | 83 | 270 | 0.0 | 0.0 | 0.00 | 0.00 | 0.00 | 62 | |
| 20260902233203 | 84 | 270 | 0.0 | 1.0 | 0.00 | 0.00 | 0.00 | 59 | |
| 20260902232203 | 85 | 282 | 1.0 | 2.0 | 0.00 | 0.00 | 0.00 | 57 | |
| 20260902231212 | 86 | 296 | 0.0 | 2.0 | 0.00 | 0.00 | 0.00 | 55 | |
| 20260902230204 | 86 | 298 | 1.0 | 2.0 | 0.00 | 0.00 | 0.00 | 53 | |
| 20260902225204 | 86 | 267 | 0.0 | 3.0 | 0.00 | 0.00 | 0.00 | 53 | |
| 20260902224204 | 86 | 296 | 1.0 | 3.0 | 0.00 | 0.00 | 0.00 | 51 | |
| 20260902223204 | 86 | 239 | 1.0 | 3.0 | 0.00 | 0.00 | 0.00 | 54 | |
| 20260902222204 | 84 | 304 | 1.0 | 2.0 | 0.00 | 0.00 | 0.00 | 59 | |
| 20260902221204 | 83 | 343 | 1.0 | 5.0 | 0.00 | 0.00 | 0.00 | 61 | |
| 20260902220204 | 83 | 307 | 0.0 | 2.0 | 0.00 | 0.00 | 0.00 | 62 | |
| 20260902215204 | 83 | 216 | 0.0 | 3.0 | 0.00 | 0.00 | 0.00 | 63 | |
| 20260902214203 | 83 | 218 | 1.0 | 3.0 | 0.00 | 0.00 | 0.00 | 62 | |
| 20260902213204 | 83 | 278 | 0.0 | 3.0 | 0.00 | 0.00 | 0.00 | 62 | |
| 20260902212204 | 83 | 278 | 1.0 | 5.0 | 0.00 | 0.00 | 0.00 | 62 | |
| 20260902211204 | 84 | 218 | 1.0 | 6.0 | 0.00 | 0.00 | 0.00 | 64 | |
| 20260902210204 | 84 | 125 | 1.0 | 3.0 | 0.00 | 0.00 | 0.00 | 65 | |
| 20260902205203 | 84 | 275 | 1.0 | 6.0 | 0.00 | 0.00 | 0.00 | 64 | |
| 20260902204204 | 84 | 324 | 1.0 | 5.0 | 0.00 | 0.00 | 0.00 | 64 | |
| 20260902203203 | 84 | 263 | 1.0 | 5.0 | 0.00 | 0.00 | 0.00 | 64 | |
| 20260902202204 | 84 | 230 | 1.0 | 3.0 | 0.00 | 0.00 | 0.00 | 63 | |
| 20260902201204 | 84 | 280 | 2.0 | 8.0 | 0.00 | 0.00 | 0.00 | 63 | |
| 20260902200204 | 84 | 273 | 2.0 | 5.0 | 0.00 | 0.00 | 0.00 | 62 | |
| 20260902195204 | 85 | 194 | 1.0 | 5.0 | 0.00 | 0.00 | 0.00 | 61 | |
| 20260902194204 | 84 | 151 | 0.0 | 5.0 | 0.00 | 0.00 | 0.00 | 63 | |
| 20260902193204 | 84 | 265 | 1.0 | 7.0 | 0.00 | 0.00 | 0.00 | 61 | |
| 20260902192203 | 84 | 206 | 2.0 | 6.0 | 0.00 | 0.00 | 0.00 | 60 | |
| 20260902191207 | 85 | 221 | 2.0 | 8.0 | 0.00 | 0.00 | 0.00 | 60 | |
| 20260902190204 | 85 | 221 | 2.0 | 8.0 | 0.00 | 0.00 | 0.00 | 60 | |
| 20260902185205 | 85 | 261 | 2.0 | 7.0 | 0.00 | 0.00 | 0.00 | 60 | |
| 20260902184204 | 85 | 292 | 2.0 | 6.0 | 0.00 | 0.00 | 0.00 | 61 | |
| 20260902183204 | 84 | 150 | 2.0 | 6.0 | 0.00 | 0.00 | 0.00 | 61 | |
| 20260902182204 | 84 | 249 | 2.0 | 8.0 | 0.00 | 0.00 | 0.00 | 60 | |
| 20260902181204 | 85 | 233 | 3.0 | 7.0 | 0.00 | 0.00 | 0.00 | 57 | |
| 20260902180204 | 85 | 233 | 2.0 | 6.0 | 0.00 | 0.00 | 0.00 | 59 | |
| 20260902175203 | 85 | 215 | 1.0 | 7.0 | 0.00 | 0.00 | 0.00 | 60 | |
| 20260902174204 | 84 | 103 | 1.0 | 5.0 | 0.00 | 0.00 | 0.00 | 63 | |
| 20260902173204 | 83 | 224 | 2.0 | 6.0 | 0.00 | 0.00 | 0.00 | 62 | |
| 20260902172203 | 83 | 307 | 1.0 | 6.0 | 0.00 | 0.00 | 0.00 | 64 | |
| 20260902171204 | 82 | 282 | 0.0 | 2.0 | 0.00 | 0.00 | 0.00 | 64 | |
| 20260902170204 | 82 | 220 | 1.0 | 5.0 | 0.00 | 0.00 | 0.00 | 65 | |
| 20260902165204 | 82 | 206 | 0.0 | 2.0 | 0.00 | 0.00 | 0.00 | 66 | |
| 20260902164203 | 81 | 102 | 1.0 | 6.0 | 0.00 | 0.00 | 0.00 | 66 | |
| 20260902163203 | 81 | 225 | 1.0 | 6.0 | 0.00 | 0.00 | 0.00 | 66 | |
| 20260902162204 | 82 | 154 | 1.0 | 5.0 | 0.00 | 0.00 | 0.00 | 65 | |
| 20260902161204 | 81 | 129 | 0.0 | 6.0 | 0.00 | 0.00 | 0.00 | 68 | |
| 20260902160203 | 80 | 99 | 1.0 | 3.0 | 0.00 | 0.00 | 0.00 | 67 | |
| 20260902155204 | 79 | 160 | 0.0 | 3.0 | 0.00 | 0.00 | 0.00 | 69 | |
| 20260902154203 | 79 | 208 | 0.0 | 0.0 | 0.00 | 0.00 | 0.00 | 70 | |
| 20260902153203 | 79 | 208 | 0.0 | 2.0 | 0.00 | 0.00 | 0.00 | 70 | |
| 20260902152204 | 78 | 106 | 0.0 | 1.0 | 0.00 | 0.00 | 0.00 | 69 | |
| 20260902151203 | 78 | 89 | 0.0 | 1.0 | 0.00 | 0.00 | 0.00 | 70 | |
| 20260902150203 | 78 | 95 | 1.0 | 2.0 | 0.00 | 0.00 | 0.00 | 70 | |
| 20260902145204 | 78 | 60 | 0.0 | 5.0 | 0.00 | 0.00 | 0.00 | 70 | |
| 20260902144203 | 77 | 79 | 1.0 | 3.0 | 0.00 | 0.00 | 0.00 | 70 | |
| 20260902143204 | 76 | 95 | 1.0 | 5.0 | 0.00 | 0.00 | 0.00 | 72 | |
| 20260902142203 | 76 | 138 | 1.0 | 6.0 | 0.00 | 0.00 | 0.00 | 73 | |
| 20260902141204 | 76 | 167 | 1.0 | 7.0 | 0.00 | 0.00 | 0.00 | 74 | |
| 20260902140203 | 76 | 98 | 2.0 | 7.0 | 0.00 | 0.00 | 0.00 | 74 | |
| 20260902135204 | 75 | 159 | 1.0 | 5.0 | 0.00 | 0.00 | 0.00 | 76 | |
| 20260902134203 | 74 | 105 | 1.0 | 7.0 | 0.00 | 0.00 | 0.00 | 77 | |
| 20260902133203 | 74 | 112 | 3.0 | 6.0 | 0.00 | 0.00 | 0.00 | 79 | |
| 20260902132204 | 74 | 112 | 1.0 | 5.0 | 0.00 | 0.00 | 0.00 | 80 | |
| 20260902131203 | 74 | 127 | 1.0 | 5.0 | 0.00 | 0.00 | 0.00 | 80 | |
| 20260902130204 | 74 | 146 | 1.0 | 6.0 | 0.00 | 0.00 | 0.00 | 80 | |
| 20260902125203 | 73 | 84 | 3.0 | 7.0 | 0.00 | 0.00 | 0.00 | 80 | |
| 20260902124204 | 73 | 98 | 1.0 | 5.0 | 0.00 | 0.00 | 0.00 | 82 | |
| 20260902123203 | 73 | 127 | 2.0 | 5.0 | 0.00 | 0.00 | 0.00 | 82 | |
| 20260902122203 | 72 | 104 | 2.0 | 6.0 | 0.00 | 0.00 | 0.00 | 83 | |
| 20260902121203 | 72 | 119 | 2.0 | 5.0 | 0.00 | 0.00 | 0.00 | 85 | |
| 20260902120203 | 72 | 163 | 0.0 | 3.0 | 0.00 | 0.00 | 0.00 | 86 | |
| 20260902115203 | 72 | 140 | 1.0 | 3.0 | 0.00 | 0.00 | 0.00 | 86 | |
| 20260902114203 | 72 | 125 | 1.0 | 3.0 | 0.00 | 0.00 | 0.00 | 86 | |
| 20260902113204 | 72 | 117 | 1.0 | 3.0 | 0.00 | 0.00 | 0.00 | 87 | |
| 20260902112203 | 72 | 103 | 1.0 | 3.0 | 0.00 | 0.00 | 0.00 | 87 | |
| 20260902111204 | 72 | 148 | 0.0 | 2.0 | 0.00 | 0.00 | 0.00 | 87 | |
| 20260902110208 | 72 | 183 | 1.0 | 2.0 | 0.00 | 0.00 | 0.00 | 86 | |
| 20260902105208 | 73 | 196 | 1.0 | 2.0 | 0.00 | 0.00 | 0.00 | 84 | |
| 20260902104203 | 73 | 15 | 2.0 | 3.0 | 0.00 | 0.00 | 0.00 | 82 | |
| 20260902103204 | 73 | 342 | 1.0 | 3.0 | 0.00 | 0.00 | 0.00 | 80 | |
| 20260902102203 | 74 | 346 | 0.0 | 2.0 | 0.00 | 0.00 | 0.00 | 81 | |
| 20260902101204 | 74 | 334 | 2.0 | 6.0 | 0.00 | 0.00 | 0.00 | 80 | |
| 20260902100203 | 74 | 355 | 1.0 | 5.0 | 0.00 | 0.00 | 0.00 | 81 | |
| 20260902095203 | 73 | 287 | 2.0 | 7.0 | 0.00 | 0.00 | 0.00 | 82 | |
| 20260902094203 | 73 | 268 | 0.0 | 0.0 | 0.00 | 0.00 | 0.00 | 86 | |
| 20260902093203 | 73 | 268 | 0.0 | 1.0 | 0.00 | 0.00 | 0.00 | 85 | |
| 20260902092203 | 73 | 191 | 0.0 | 1.0 | 0.00 | 0.00 | 0.00 | 84 | |
| 20260902091203 | 74 | 88 | 0.0 | 0.0 | 0.00 | 0.00 | 0.00 | 84 |